TimeCET,TemperatureF,Dew PointF,Humidity,Sea Level PressureIn,VisibilityMPH,Wind Direction,Wind SpeedMPH,Gust SpeedMPH,PrecipitationIn,Events,Conditions,WindDirDegrees,DateUTC
3:00 AM,68.0,60.8,78,29.95,6.2,North,6.9,-,N/A,,Partly Cloudy,350,2012-11-03 02:00:00
3:30 AM,66.2,60.8,83,29.95,6.2,Variable,2.3,-,N/A,,Partly Cloudy,0,2012-11-03 02:30:00
4:00 AM,66.2,60.8,83,29.95,6.2,Calm,Calm,-,N/A,,Partly Cloudy,0,2012-11-03 03:00:00
6:00 AM,64.4,60.8,88,29.92,6.2,Calm,Calm,-,N/A,,Partly Cloudy,0,2012-11-03 05:00:00
6:30 AM,64.4,60.8,88,29.92,6.2,Variable,1.2,-,N/A,,Partly Cloudy,0,2012-11-03 05:30:00
7:00 AM,64,60,82,29.93,19,Calm,Calm,,,,Partly Cloudy,,2012-11-03 06:00:00
7:00 AM,64.4,60.8,88,29.92,-9999.0,Variable,1.2,-,N/A,,Clear,0,2012-11-03 06:00:00
7:30 AM,62.6,60.8,94,29.92,-9999.0,Variable,2.3,-,N/A,,Clear,0,2012-11-03 06:30:00
8:00 AM,62.6,60.8,94,29.92,-9999.0,Variable,1.2,-,N/A,,Clear,0,2012-11-03 07:00:00
8:30 AM,66.2,62.6,88,29.92,-9999.0,Variable,1.2,-,N/A,,Clear,0,2012-11-03 07:30:00
9:00 AM,69.8,62.6,78,29.92,-9999.0,Calm,Calm,-,N/A,,Clear,0,2012-11-03 08:00:00
9:30 AM,73.4,62.6,69,29.95,-9999.0,Calm,Calm,-,N/A,,Clear,0,2012-11-03 08:30:00
10:00 AM,80.6,59.0,48,29.95,-9999.0,SW,12.7,24.2,N/A,,Clear,220,2012-11-03 09:00:00
10:30 AM,82.4,59.0,45,29.95,-9999.0,SW,10.4,-,N/A,,Clear,220,2012-11-03 09:30:00
11:30 AM,84.2,59.0,42,29.92,-9999.0,SW,12.7,-,N/A,,Clear,220,2012-11-03 10:30:00
12:00 PM,84.2,59.0,42,29.95,-9999.0,SSW,13.8,26.5,N/A,,Clear,210,2012-11-03 11:00:00
12:30 PM,86.0,57.2,37,29.92,-9999.0,SW,16.1,27.6,N/A,,Clear,230,2012-11-03 11:30:00
1:00 PM,87,61,31,29.91,19,West,8.1,,,,Partly Cloudy,270,2012-11-03 12:00:00
1:00 PM,86.0,59.0,40,29.92,-9999.0,West,8.1,-,N/A,,Clear,270,2012-11-03 12:00:00
1:30 PM,87.8,57.2,35,29.92,-9999.0,West,6.9,18.4,N/A,,Clear,260,2012-11-03 12:30:00
2:00 PM,84.2,59.0,42,29.92,-9999.0,WNW,11.5,-,N/A,,Clear,300,2012-11-03 13:00:00
2:30 PM,84.2,59.0,42,29.92,-9999.0,West,10.4,-,N/A,,Clear,280,2012-11-03 13:30:00
3:00 PM,82.4,59.0,45,29.92,-9999.0,West,11.5,-,N/A,,Clear,280,2012-11-03 14:00:00
3:30 PM,80.6,59.0,48,29.92,-9999.0,West,9.2,-,N/A,,Clear,260,2012-11-03 14:30:00
4:00 PM,80.6,60.8,51,29.92,-9999.0,West,8.1,-,N/A,,Clear,270,2012-11-03 15:00:00
4:30 PM,78.8,60.8,54,29.92,-9999.0,West,10.4,-,N/A,,Clear,270,2012-11-03 15:30:00
5:00 PM,78.8,60.8,54,29.92,-9999.0,WNW,8.1,-,N/A,,Clear,300,2012-11-03 16:00:00
5:30 PM,78.8,60.8,54,29.92,-9999.0,West,8.1,-,N/A,,Clear,260,2012-11-03 16:30:00
6:00 PM,77.0,60.8,57,29.95,-9999.0,West,5.8,-,N/A,,Clear,260,2012-11-03 17:00:00
6:30 PM,75.2,60.8,61,29.95,-9999.0,West,6.9,-,N/A,,Clear,260,2012-11-03 17:30:00
7:00 PM,74,62,57,29.93,25,West,3.5,,,,Scattered Clouds,280,2012-11-03 18:00:00
7:00 PM,73.4,62.6,69,29.95,-9999.0,West,3.5,-,N/A,,Clear,280,2012-11-03 18:00:00
7:30 PM,73.4,62.6,69,29.95,-9999.0,WNW,10.4,-,N/A,,Clear,300,2012-11-03 18:30:00